2013-070B C2014 02 26.84548003 09 41.43 +20 03 36.8 13.3 V C95
2013-070B C2014 02 26.84620903 09 55.51 +20 03 01.2 13.5 V C95
2013-070B C2014 02 26.84658003 10 02.62 +20 02 42.2 13.9 V C95
2013-070B C2014 02 26.85285303 12 04.54 +19 57 31.0 14.5 V C95
2013-070B C2014 02 26.85322303 12 11.87 +19 57 12.6 14.3 V C95
Station data:
(160) Castelmartini (N43.82311 E10.84144) Italy.
(448) Desert Moon Observatory, Las Cruces (N32.3877 W106.7199) US/New Mexico.
Observer B. L. Stevens. 0.3-m Schmidt-Cassegrain + CCD.
(703) Catalina Sky Survey (N32.41712 W110.73264) US/Arizona. Observers E.
J. Christensen, A. R. Gibbs, A. D. Grauer, R. E. Hill, J. A. Johnson, R. A.
Kowalski, S. M. Larson, F. C. Shelly. 0.68 m Schmidt + CCD.
(718) Tooele (N40.6415 W112.2958) US/Utah. Observer P. Wiggins. 0.35-m
f/5.5 Schmidt-Cassegrain + CCD.
(854) Sabino Canyon Observatory, Tucson (N32.29991 W110.82005) US/Arizona.
Observer J. E. McGaha. 0.36-m f/10.0 Schmidt-Cassegrain + CCD.
(958) Observatoire de Dax (N43.69337 W1.03039) France.
(C95) SATINO Remote Observatory, Haute Provence (N43.93211 E5.71239) France.
Observer J. Jahn. 0.60-m f/3.2 Newton + CCD.
(J08) Observatorio Zonalunar, Puzol (N39.6272 W0.3451) Spain.
Orbital elements (current geocentric): 2013-070B = UX29E26 = Chang'e 3 booster
Perigee 2014 Feb 27.317211 +/- 2.92e-6 TT = 7:36:47 (JD 2456715.817211)
Epoch 2014 Feb 25.0 TT; AMR 0.012308 +/- 0.000085 m2/kg Find_Orb
M 318.977178 +/- 0.000039
n 17.703531942 +/- 7.38e-6 Peri. 201.194058 +/- 0.00018
a314700.1085 +/- 0.0875 Node 307.315039 +/- 0.00018
e 0.84289091 +/- 5.8e-7 Incl. 22.344703 +/- 0.000014
P 20.33d H 25.6 G 0.15 U 4.8
q 49442.24517 +/- 0.196 Q 579957.9718 +/- 0.0601
From 123 observations 2013 Dec. 10-2014 Feb. 26; mean residual 0".535.
Orbital elements (lunar flyby): 2013-070B = UX29E26 = Chang'e 3 booster
Perilune 2013 Dec 6.469666 +/- 7.32e-6 TT = 11:16:19 (JD 2456632.969666)
Epoch 2013 Dec 6.5 TT; AMR 0.012306 +/- 0.000084 m^2/kg Find_Orb
q 4743.540694 +/- 1.29
H 25.6 G 0.15 Peri. 308.840784 +/- 0.008
Node 201.628578 +/- 0.0051
e 1.73731183 +/- 0.000209 Incl. 22.609666 +/- 0.0006
From 123 observations 2013 Dec. 10-2014 Feb. 26; mean residual 0".536.
Orbital elements (after launch): 2013-070B = UX29E26 = Chang'e 3 booster
Perigee 2013 Dec 1.743181 +/- 0.000694 TT = 17:50:10 (JD 2456628.243181)
Epoch 2013 Dec 2.0 TT; AMR 0.012308 +/- 0.000085 m^2/kg Find_Orb
M 10.269027 +/- 0.027
n 39.985435359 +/- 0.00155 Peri. 147.768652 +/- 0.037
a182810.9838 +/- 4.72 Node 334.505208 +/- 0.039
e 0.96357737 +/- 6.43e-6 Incl. 28.570650 +/- 0.019
P 9.00d H 25.6 G 0.15 U 8.4
q 6658.455092 +/- 1.34 Q 358963.5126 +/- 8.14
From 123 observations 2013 Dec. 10-2014 Feb. 26; mean residual 0".535.
Residuals in arcseconds:
131210 703 .211+ .380+ 131226 703 .138+ .053+ 131228 C95 .120+ .063+
131210 703 .049+ .459+ 131226 703 .054+ .210+ 131228 C95 .273+ .151-
131210 703 .205- .551+ 131226 703 .176- .180+ 131228 C95 .111- .023-
131210 703 .191- 1.54- 131226 703 .164- .256+ 131228 C95 .001- .053-
131210 703 .300+ .189+ 131226 703 .166- .338+ 140114 C95 .297+ .889-
131210 C95 .122+ .254+ 131226 718 .139+ .583+ 140114 C95 .620+ 1.01-
131210 C95 .060- .215- 131226 703 .144- .175+ 140114 C95 .706+ .792-
131210 C95 .391+ .305- 131226 718 .384- .705+ 140226 C95 .566- .102-
131210 C95 .200+ .182- 131226 703 .078+ .272+ 140226 C95 .448- .329-
131210 160 .342+ .406- 131226 703 .067+ .253+ 140226 C95 .106+ .609-
131210 160 .047+ .113+ 131226 703 .038+ .237+ 140226 C95 1.27+ .347-
131210 958 .208+ .228- 131226 718 1.03- .400+ 140226 C95 .475- .012-
131210 160 .462+ .343+ 131226 854 .463+ .640+ 140226 C95 .146+ .307-
131210 J08 .482+ .584- 131226 703 .165+ .381+ 140226 C95 1.00+ .722-
131210 958 .168- .439+ 131226 854 .108- .701+ 140226 C95 1.11- .156-
131210 958 .158- .625- 131226 703 .111- .217+ 140226 C95 .184- .200-
131210 J08 .309- .464+ 131226 703 .021- .256+ 140226 C95 .048+ .693-
131210 958 .108+ .131+ 131226 703 .077- .498+ 140226 C95 .515+ .422-
131210 J08 .623+ .080+ 131226 854 .473+ .841+ 140226 C95 1.52+ .544-
131210 J08 .068- .010+ 131226 718 .066+ .264+ 140226 C95 1.26- .340-
131210 958 .125+ .331+ 131226 958 .474- .290+ 140226 C95 1.63- .082+
131211 448 .339+ .250- 131226 958 .710- .258+ 140226 C95 .434- .073-
131211 448 .144+ .450- 131226 958 .627- .310+ 140226 C95 .106- .110-
131211 448 .096+ .370- 131226 958 .906- .009+ 140226 C95 1.03- .903-
131211 448 .673+ .011- 131228 703 .557- .097+ 140226 C95 1.06- .891+
131211 448 .074+ .377- 131228 703 .459+ .033+ 140226 C95 1.46+ .101-
131211 C95 .007+ .302- 131228 703 .210- .164+ 140226 C95 .600+ .866-
131211 C95 .028+ .304- 131228 703 .478+ .036+ 140226 C95 .037+ .787-
131211 C95 .032- .260- 131228 C95 .041+ .120- 140226 C95 .502+ .707-
131211 C95 .116- .394- 131228 C95 .595- .634+ 140226 C95 .470+ .622-
131211 C95 .133+ .287- 131228 C95 .131+ .199- 140226 C95 .183+ .356+
131211 C95 .082+ .269- 131228 C95 .096+ .060- 140226 C95 .247- .531+
131211 C95 .014- .406- 131228 C95 .298+ .180- 140226 C95 .805- .353+
131211 C95 .095+ .328+ 131228 C95 .092+ .059- 140226 C95 .494- .067+
131216 C95 .164- .205- 131228 C95 .252+ .195- 140226 C95 1.17- .280+
131216 C95 .216- .018- 131228 C95 .073+ .048- 140226 C95 1.56+ .690-
131216 C95 .292- .238- 131228 C95 .513+ .219+ 140226 C95 1.05+ .413+
131216 C95 .199- .198- 131228 C95 .387+ .095+ 140226 C95 2.06+ .023+
131216 C95 .293- .033+ 131228 C95 .178- .315- 140226 C95 1.60+ .989-
131216 C95 .230- .525- 131228 C95 .168+ .045+ 140226 C95 2.23- .964-
131226 703 .033- .000 131228 C95 .332+ .219+ 140226 C95 1.69- .585-
Ephemerides:
Date (UT) RA Dec delta r elong mag " sig PA
---- -- -- ------------ ------------ ------ ------ ----- --- ---- ---
2014 02 20 22 20 25.522 +10 41 44.77 550786 .98527 21.9 23.? 0 116
2014 02 21 22 32 45.734 +11 48 57.37 523798 .98568 22.9 23.? 0 116
2014 02 22 22 46 52.180 +13 01 20.54 488103 .98616 24.3 22.? 0 116
2014 02 23 23 03 48.687 +14 22 17.88 442416 .98671 26.3 22.? 0 114
2014 02 24 23 25 38.514 +15 57 22.41 384702 .98735 29.3 21.? 0 112
2014 02 25 23 57 11.633 +17 56 37.35 311474 .98811 34.5 19.? 1 108
2014 02 26 00 54 32.475 +20 37 16.21 215854 .98905 45.2 17.? 2 101
2014 02 27 04 29 08.392 +19 33 20.74 82779 0.9903 90.5 12.4 19 79
2014 02 28 17 36 17.610 -15 40 24.48 137236 0.9903 75.0 14.2 8 105
2014 03 01 19 17 19.054 -07 11 32.31 254362 .98973 51.8 17.? 2 109
2014 03 02 19 57 48.093 -03 12 54.80 340574 .98937 43.1 18.? 1 109
2014 03 03 20 23 12.987 -00 39 40.34 407455 .98913 38.1 19.? 1 109
2014 03 04 20 42 07.906 +01 14 10.01 460198 .98899 34.8 20.? 1 108
2014 03 05 20 57 34.227 +02 45 58.89 501618 .98893 32.2 21.? 0 108
2014 03 06 21 10 56.817 +04 04 04.15 533419 .98893 30.2 21.? 0 108
2014 03 07 21 23 02.960 +05 13 02.10 556693 .98899 28.5 22.? 0 108
2014 03 08 21 34 22.754 +06 15 44.17 572151 .98910 27.0 22.? 0 107
2014 03 09 21 45 17.834 +07 14 07.22 580237 .98927 25.7 22.? 0 107
2014 03 10 21 56 05.807 +08 09 38.57 581190 .98948 24.4 23.? 0 107
2014 03 11 22 07 03.029 +09 03 30.09 575070 .98974 23.1 23.? 0 107
2014 03 12 22 18 26.898 +09 56 47.65 561762 0.9900 21.8 23.? 0 107
2014 03 13 22 30 38.490 +10 50 39.07 540959 0.9904 20.5 24.? 0 106
2014 03 14 22 44 06.575 +11 46 22.88 512116 0.9908 19.2 24.? 0 106
2014 03 15 22 59 35.126 +12 45 40.63 474359 0.9913 17.9 24.? 0 105
2014 03 16 23 18 19.895 +13 50 57.30 426307 0.9919 16.9 25.? 1 104
2014 03 17 23 42 52.178 +15 05 56.37 365706 0.9925 16.7 24.? 1 102
2014 03 18 00 19 28.141 +16 36 12.58 288550 0.9933 19.2 23.? 2 99
2014 03 19 01 31 35.528 +18 18 11.29 186541 0.9944 30.8 19.? 6 93
2014 03 20 08 14 55.928 -00 37 55.51 52949 0.9959 124.5 10.3 80 71
2014 03 21 18 17 44.483 -08 45 29.22 168432 0.9959 85.7 14.2 8 105
2014 03 22 19 34 11.958 -02 45 32.63 275006 0.9956 67.5 16.2 3 107
2014 03 23 20 10 40.639 +00 16 39.80 354083 0.9954 59.2 17.? 2 106
2014 03 24 20 34 56.844 +02 17 21.94 414876 0.9952 54.1 18.? 1 106
2014 03 25 20 53 38.044 +03 48 14.50 461624 0.9952 50.3 18.? 1 106
2014 03 26 21 09 17.993 +05 01 44.27 496554 0.9952 47.3 19.? 1 106
2014 03 27 21 23 14.415 +06 03 45.56 520869 0.9953 44.8 19.? 1 107
2014 03 28 21 36 17.106 +06 57 45.47 535213 0.9954 42.4 19.? 1 107
2014 03 29 21 49 04.048 +07 46 36.39 540026 0.9956 40.2 20.? 1 108
2014 03 30 22 02 05.162 +08 32 53.22 535669 0.9958 37.9 20.? 1 108
2014 03 31 22 15 47.005 +09 18 32.93 522287 0.9960 35.4 20.? 1 108
2014 04 01 22 30 40.511 +10 05 04.16 499698 0.9964 32.7 21.? 1 108
2014 04 02 22 47 30.314 +10 53 50.47 467328 0.9967 29.5 21.? 1 107
2014 04 03 23 07 30.989 +11 46 30.42 424087 0.9972 25.6 22.? 1 106
2014 04 04 23 33 07.038 +12 45 13.24 368075 0.9977 20.6 23.? 1 104
2014 04 05 00 10 02.080 +13 52 13.02 295883 0.9984 13.6 26.? 2 100
2014 04 06 01 17 47.882 +14 58 46.85 200710 0.9993 9.9 28.? 5 94
2014 04 07 05 47 44.939 +07 27 42.46 72801 1.0007 70.7 13.1 38 77
2014 04 08 17 19 14.873 -09 02 15.59 145374 1.0016 117.3 12.7 9 100
2014 04 09 19 00 58.694 -02 53 17.88 255427 1.0015 92.5 14.8 3 103
2014 04 10 19 45 09.298 +00 03 20.85 337196 1.0014 82.1 15.9 2 103
2014 04 11 20 13 32.528 +01 56 45.59 400369 1.0013 75.7 16.6 1 104
2014 04 12 20 35 00.364 +03 20 46.80 449615 1.0013 71.1 17.1 1 105
2014 04 13 20 52 48.489 +04 28 32.20 487494 1.0013 67.5 17.5 1 106
2014 04 14 21 08 30.959 +05 26 25.36 515544 1.0013 64.4 17.8 0 106
2014 04 15 21 23 01.802 +06 18 03.54 534727 1.0014 61.6 18.1 0 107
2014 04 16 21 36 57.003 +07 05 45.07 545631 1.0015 59.0 18.? 0 108
2014 04 17 21 50 44.260 +07 51 07.42 548579 1.0016 56.4 18.? 0 109
2014 04 18 22 04 48.385 +08 35 26.26 543674 1.0018 53.7 18.? 0 109
2014 04 19 22 19 35.343 +09 19 46.09 530821 1.0020 50.9 18.? 0 109
2014 04 20 22 35 36.643 +10 05 07.05 509710 1.0022 47.8 19.? 0 109
2014 04 21 22 53 36.025 +10 52 29.21 479776 1.0025 44.2 19.? 0 109
2014 04 22 23 14 42.302 +11 42 52.96 440104 1.0028 39.9 19.? 0 108
2014 04 23 23 40 59.010 +12 37 05.05 389243 1.0032 34.3 20.? 1 106
2014 04 24 00 16 48.341 +13 34 15.76 324841 1.0037 26.4 21.? 1 103
